Wind_Speed
15 15 16 16 16 15 14 14 13 13 14 15 16 15 13 14 15 15 15 14 15 14 12 12 12 12 13 13 14 14 15 15 15 15 14 14 13 13 13 13 14 15
15 16 17 16 16 15 14 14 14 13 14 15 17 16 15 14 15 15 15 16 16 15 14 13 14 14 14 15 15 15 16 16 15 15 14 14 13 13 13 14 15 16
16 17 17 16 15 15 14 14 14 13 13 15 16 16 15 15 15 15 16 17 17 16 16 15 15 16 16 15 15 16 16 16 15 14 14 13 13 13 14 15 16 17
17 18 18 16 15 14 15 15 14 13 13 14 16 16 15 15 15 16 17 17 17 17 17 17 17 17 17 16 16 16 16 16 15 14 13 13 13 14 15 16 16 17
18 19 18 17 15 15 15 15 14 14 14 15 16 16 15 15 15 16 17 17 17 18 18 18 18 18 17 17 17 17 16 15 14 13 13 13 14 15 15 16 17 18
19 19 18 17 16 16 16 15 14 14 15 15 16 16 15 14 15 16 17 17 17 18 18 18 18 18 18 17 17 16 15 14 13 13 13 13 14 15 16 17 18 18
20 20 18 17 16 16 16 15 14 15 15 16 16 15 15 15 15 16 16 17 17 18 18 18 18 17 17 17 16 16 15 13 13 13 13 14 15 16 17 18 18 18
20 20 19 17 17 16 16 15 15 15 16 16 16 16 16 16 16 16 16 17 17 17 17 17 17 17 17 16 16 15 14 12 12 13 13 14 16 17 18 18 19 19
21 21 19 18 18 16 16 16 16 15 16 17 17 17 17 16 16 16 16 16 16 16 16 15 15 16 15 15 15 14 12 11 12 13 14 15 16 17 18 18 19 19
21 21 20 19 19 17 17 17 16 16 17 18 18 18 17 16 16 16 16 15 15 15 14 14 15 15 15 14 13 12 11 11 12 13 14 15 16 17 18 19 19 18
22 21 20 20 19 18 18 17 16 17 18 19 18 18 18 16 16 16 15 14 14 14 14 14 14 14 13 13 11 10 10 11 12 13 14 15 17 18 18 19 18 18
22 21 21 21 20 19 19 18 17 19 20 20 19 19 18 16 17 17 15 15 14 14 14 14 14 13 12 11 10 10 11 11 12 13 14 15 17 18 18 18 18 17
22 21 21 21 20 20 19 18 19 21 21 21 20 19 18 17 17 17 16 15 15 14 14 14 14 13 12 11 11 11 11 12 12 13 14 15 16 17 18 18 17 17
22 21 22 22 21 20 19 19 21 22 22 22 21 19 18 18 19 18 17 17 16 15 15 15 15 14 13 12 12 11 12 12 12 13 14 15 16 17 17 17 17 17
23 23 23 23 23 22 20 21 22 23 22 22 21 20 18 19 19 19 19 19 17 16 17 17 17 15 14 14 13 12 12 12 12 13 14 15 16 17 16 16 17 17
24 24 24 23 24 23 22 21 22 22 22 22 21 20 19 19 20 20 20 20 19 18 19 19 19 17 16 16 14 13 12 12 11 12 14 16 16 16 15 16 18 17
25 25 24 24 25 24 22 21 21 21 20 21 22 22 21 20 20 19 20 21 20 20 21 21 20 19 18 16 14 13 12 11 11 13 14 16 16 15 15 16 17 17
25 25 25 25 26 25 22 21 20 20 20 20 22 22 22 21 20 20 21 21 21 21 22 22 22 20 19 16 14 12 11 11 12 13 13 14 15 14 15 16 17 17
25 25 25 26 27 25 22 21 20 19 19 20 21 22 23 23 22 22 22 22 21 22 23 23 23 22 20 17 15 14 13 13 13 12 13 14 13 13 14 17 17 16
26 26 26 27 27 26 23 21 20 19 19 19 21 22 22 22 23 24 24 23 23 24 24 25 25 23 21 20 18 17 16 16 14 13 13 14 13 13 14 16 16 16
26 26 27 28 28 26 24 22 20 19 19 19 21 21 21 22 24 24 24 25 25 25 26 25 24 23 23 22 21 21 20 18 15 13 14 15 14 13 14 15 15 15
26 27 29 29 28 27 25 22 20 19 19 20 21 22 22 23 24 25 25 25 25 26 25 23 22 23 23 21 22 24 23 18 14 13 14 15 14 13 13 14 15 15
26 28 29 29 28 27 25 22 20 20 19 20 22 22 23 24 25 26 26 25 24 24 23 21 21 22 22 20 20 21 20 17 15 14 15 15 14 13 12 14 15 14
26 28 29 30 29 27 24 22 21 21 20 21 22 23 24 25 26 26 27 26 24 23 22 22 22 23 22 20 19 18 17 17 16 16 16 15 14 13 13 14 15 14
25 29 31 30 27 25 23 23 23 22 21 21 22 24 25 25 26 26 25 23 20 19 19 18 18 19 19 18 18 18 17 16 16 17 16 14 13 13 14 14 13 14
25 29 29 26 24 24 24 24 23 22 21 22 23 24 25 25 25 24 23 21 19 17 16 14 12 13 15 14 14 15 15 15 16 16 15 13 13 13 14 13 12 14
Wind_Direction
240 240 241 244 248 251 251 250 251 248 245 240 231 224 223 218 217 221 224 226 231 235 237 239 242 244 249 255 262 271 279 284 286 289 292 291 291 291 290 290 291 294
237 239 242 243 245 248 247 246 245 242 239 233 226 224 224 222 223 226 228 230 234 236 238 241 243 246 251 256 265 276 281 284 287 289 290 289 290 290 289 289 291 294
236 237 241 242 243 244 244 242 241 241 238 230 225 224 224 225 229 231 233 234 235 238 240 243 246 249 252 259 269 278 281 283 285 286 287 288 289 289 289 290 291 293
237 238 243 243 241 240 240 241 240 238 236 228 224 225 226 229 233 235 236 237 237 241 243 245 249 251 254 261 271 277 279 282 283 284 285 287 288 288 289 289 290 292
238 240 244 243 240 238 238 241 238 233 231 226 222 226 231 234 237 239 239 239 240 243 245 248 250 251 255 263 271 275 277 280 281 282 284 286 288 288 288 288 290 291
239 241 243 242 239 235 235 238 235 229 228 226 224 228 234 239 241 241 241 241 243 245 248 250 250 251 255 262 269 273 275 277 279 282 285 286 288 287 287 289 290 291
241 243 244 243 239 234 231 231 229 227 227 227 229 231 235 240 240 241 243 245 246 248 249 248 247 250 255 262 268 270 272 275 279 283 285 286 288 287 288 289 290 291
240 242 244 244 241 234 228 227 226 226 226 229 231 233 236 238 238 241 244 245 246 246 246 245 245 249 256 262 265 267 271 276 280 283 285 287 288 288 289 290 290 292
238 240 242 244 242 234 226 225 226 225 227 230 232 234 235 236 238 241 242 242 243 242 242 244 247 252 258 260 263 266 272 278 279 283 287 289 289 290 291 291 291 294
236 238 240 242 241 233 227 226 225 226 229 231 233 235 234 236 239 240 239 238 240 241 244 249 252 255 257 258 263 268 274 278 281 286 290 291 291 292 291 291 293 296
235 237 239 240 238 232 229 228 226 227 231 232 234 234 235 237 239 238 238 238 241 246 249 252 253 254 255 258 264 270 275 280 285 290 293 292 292 292 292 293 295 296
235 236 237 238 236 230 229 228 225 227 231 232 233 233 234 237 237 237 238 239 244 249 251 253 253 253 256 260 266 273 279 284 289 293 294 292 293 294 294 294 293 293
234 234 236 237 233 228 227 227 225 226 229 230 230 232 233 235 236 236 238 241 246 249 251 253 255 257 262 265 270 278 282 285 289 291 292 293 295 294 293 292 291 289
233 233 234 235 231 227 225 225 225 226 227 228 229 231 233 234 235 236 239 242 247 251 253 256 259 263 266 267 272 279 282 285 288 289 291 293 292 291 291 290 287 285
233 232 233 232 229 227 225 225 226 226 226 228 229 232 234 235 236 238 240 244 249 254 257 260 263 266 268 269 273 276 279 283 286 290 293 292 290 290 289 286 282 283
233 232 232 231 229 229 227 227 228 227 227 228 230 233 235 238 240 241 244 247 250 256 260 263 265 267 268 269 269 272 277 283 290 296 296 291 289 288 285 281 281 283
233 233 232 231 230 230 229 229 231 230 229 228 230 234 237 240 244 246 248 250 252 256 261 264 266 266 265 264 265 269 275 281 292 299 297 291 288 286 283 281 282 283
233 232 231 230 231 230 228 230 234 233 231 231 233 236 239 242 246 250 252 254 255 258 261 263 263 260 258 257 258 262 267 275 287 293 289 286 286 286 284 282 281 281
232 231 230 231 232 231 228 230 235 235 234 234 235 238 241 244 248 252 256 257 258 259 259 260 259 256 254 254 253 253 259 266 274 277 275 278 282 285 282 280 281 282
231 229 229 230 232 231 228 230 235 237 237 238 239 241 244 247 250 254 257 259 259 259 260 261 261 260 259 257 253 251 252 258 264 267 269 274 277 278 277 279 282 282
229 228 228 230 232 231 229 230 234 237 239 241 243 245 246 249 253 256 258 260 261 261 263 264 265 267 267 263 259 254 247 244 251 260 266 271 274 275 276 278 281 279
228 227 228 230 232 232 230 229 232 237 240 242 245 246 247 250 254 258 261 263 264 266 267 266 267 269 270 267 266 264 257 249 248 255 263 269 272 274 276 276 276 275
228 228 229 230 231 231 231 230 232 238 240 242 245 247 248 251 255 260 264 266 269 271 270 268 266 266 266 266 268 272 273 271 267 264 265 267 269 271 275 275 274 272
230 231 231 231 230 231 233 233 235 239 241 243 246 247 249 252 256 260 265 271 275 276 273 268 264 261 264 267 268 270 272 272 270 269 267 267 268 269 270 272 273 273
231 233 233 233 233 234 235 235 236 240 244 246 247 248 251 253 256 261 267 274 279 282 280 276 271 266 265 266 267 268 269 266 266 268 268 266 266 267 267 269 272 274
234 236 236 236 238 238 236 236 237 242 248 251 250 249 249 252 258 265 271 276 280 283 281 275 268 265 263 262 265 269 268 264 264 269 270 266 263 263 266 269 269 269
Height
3140 3141 3142 3142 3143 3144 3145 3146 3147 3148 3148 3149 3150 3150 3151 3153 3154 3155 3156 3157 3158 3158 3159 3159 3160 3161 3162 3163 3163 3163 3163 3163 3163 3163 3162 3162 3161 3161 3161 3161 3161 3160
3139 3139 3140 3141 3141 3142 3143 3145 3145 3146 3147 3148 3149 3149 3150 3152 3153 3154 3155 3155 3156 3156 3157 3158 3159 3160 3161 3161 3161 3161 3162 3161 3161 3161 3160 3160 3160 3160 3159 3159 3159 3158
3137 3137 3138 3139 3140 3141 3142 3143 3143 3144 3145 3146 3147 3148 3149 3150 3151 3152 3153 3154 3154 3155 3156 3156 3157 3158 3159 3159 3159 3160 3160 3159 3159 3159 3158 3158 3158 3158 3158 3157 3157 3157
3135 3136 3136 3137 3138 3139 3140 3141 3142 3143 3144 3145 3146 3147 3148 3149 3150 3151 3151 3152 3153 3153 3154 3155 3156 3156 3157 3157 3158 3158 3157 3157 3157 3157 3156 3156 3156 3156 3156 3156 3155 3155
3134 3134 3135 3136 3137 3137 3138 3139 3140 3141 3142 3143 3144 3146 3147 3148 3148 3149 3149 3150 3151 3151 3152 3153 3154 3154 3155 3155 3155 3156 3155 3155 3155 3155 3155 3154 3154 3154 3154 3154 3153 3153
3131 3132 3133 3134 3135 3136 3136 3137 3138 3140 3140 3141 3143 3144 3145 3146 3146 3147 3147 3148 3149 3149 3150 3151 3152 3152 3153 3153 3153 3153 3153 3153 3153 3153 3153 3153 3153 3152 3152 3152 3151 3151
3129 3130 3131 3132 3133 3134 3135 3135 3136 3138 3139 3140 3141 3142 3143 3144 3144 3145 3146 3146 3147 3148 3148 3149 3150 3151 3151 3151 3151 3151 3151 3151 3151 3151 3151 3151 3151 3151 3151 3150 3149 3149
3127 3128 3129 3130 3130 3132 3133 3134 3135 3136 3137 3138 3139 3140 3141 3142 3143 3143 3144 3145 3145 3146 3146 3147 3148 3149 3149 3149 3149 3149 3150 3150 3150 3149 3149 3149 3149 3149 3149 3148 3148 3147
3125 3125 3126 3127 3128 3129 3131 3132 3133 3134 3136 3137 3138 3139 3140 3141 3141 3142 3142 3143 3144 3144 3145 3145 3146 3147 3147 3147 3147 3148 3148 3148 3148 3148 3148 3148 3147 3147 3147 3146 3146 3145
3122 3123 3124 3125 3126 3127 3129 3130 3131 3132 3133 3135 3136 3137 3138 3139 3139 3140 3141 3141 3142 3142 3143 3144 3144 3145 3145 3145 3145 3146 3146 3146 3146 3146 3146 3146 3146 3145 3145 3145 3144 3144
3119 3120 3122 3123 3124 3125 3126 3127 3129 3130 3131 3132 3134 3135 3136 3137 3137 3138 3139 3139 3140 3141 3141 3142 3142 3143 3143 3143 3143 3144 3144 3144 3144 3144 3144 3144 3143 3143 3143 3143 3142 3142
3117 3118 3119 3121 3122 3123 3124 3126 3127 3128 3129 3130 3132 3133 3134 3135 3135 3136 3137 3138 3138 3139 3140 3140 3141 3141 3141 3141 3141 3142 3142 3142 3142 3142 3142 3142 3141 3141 3141 3141 3140 3140
3114 3116 3117 3119 3120 3121 3123 3124 3125 3126 3127 3129 3130 3131 3132 3133 3134 3134 3135 3136 3136 3137 3138 3138 3139 3139 3139 3139 3139 3140 3140 3140 3140 3140 3140 3139 3139 3139 3139 3139 3138 3138
3112 3114 3115 3117 3118 3119 3121 3122 3123 3124 3125 3127 3128 3129 3130 3131 3131 3132 3133 3134 3135 3136 3136 3136 3137 3137 3137 3137 3137 3137 3137 3137 3138 3137 3137 3137 3137 3137 3137 3136 3136 3135
3109 3111 3113 3114 3116 3117 3119 3120 3121 3122 3123 3125 3126 3127 3128 3129 3129 3130 3131 3132 3133 3134 3134 3134 3134 3135 3135 3135 3135 3135 3135 3135 3135 3135 3135 3135 3135 3135 3135 3134 3133 3133
3106 3108 3110 3112 3114 3115 3116 3118 3118 3119 3121 3122 3123 3124 3125 3126 3127 3128 3129 3130 3131 3131 3131 3132 3132 3132 3133 3132 3132 3133 3133 3133 3133 3133 3133 3132 3132 3132 3132 3131 3131 3130
3104 3106 3107 3109 3111 3112 3113 3115 3115 3117 3118 3119 3120 3122 3123 3124 3125 3126 3127 3127 3128 3129 3129 3129 3129 3130 3130 3130 3130 3130 3130 3130 3130 3130 3130 3130 3130 3130 3130 3129 3128 3128
3101 3103 3105 3106 3108 3109 3111 3112 3113 3114 3115 3117 3118 3119 3120 3121 3123 3123 3124 3125 3126 3126 3126 3126 3126 3126 3127 3127 3127 3127 3127 3127 3127 3127 3127 3127 3127 3128 3127 3126 3126 3126
3098 3100 3102 3103 3104 3106 3108 3109 3110 3111 3113 3114 3115 3117 3118 3119 3120 3121 3121 3122 3123 3123 3123 3122 3122 3123 3124 3124 3124 3124 3124 3124 3124 3124 3124 3124 3125 3125 3124 3124 3124 3124
3096 3098 3099 3100 3101 3103 3105 3106 3107 3108 3110 3112 3113 3114 3115 3116 3117 3118 3118 3119 3119 3120 3119 3119 3120 3121 3122 3122 3121 3121 3120 3120 3121 3121 3122 3122 3122 3122 3122 3121 3121 3121
3093 3095 3096 3097 3098 3099 3101 3103 3104 3106 3108 3109 3110 3111 3112 3113 3114 3115 3115 3116 3116 3117 3117 3117 3117 3118 3119 3119 3119 3117 3116 3116 3117 3118 3119 3119 3120 3120 3120 3119 3119 3119
3090 3091 3093 3094 3095 3096 3098 3100 3102 3103 3105 3106 3107 3108 3109 3110 3111 3111 3112 3112 3113 3114 3114 3114 3115 3115 3115 3116 3116 3114 3114 3114 3114 3115 3116 3117 3117 3117 3117 3117 3117 3117
3087 3088 3089 3090 3091 3092 3094 3097 3099 3101 3102 3104 3105 3106 3107 3108 3108 3108 3109 3109 3110 3111 3111 3111 3112 3112 3112 3113 3113 3112 3113 3113 3112 3112 3113 3114 3114 3115 3115 3115 3115 3115
3083 3084 3085 3086 3087 3089 3092 3095 3097 3098 3100 3101 3102 3102 3104 3104 3105 3105 3106 3106 3108 3108 3108 3109 3109 3108 3109 3109 3110 3110 3110 3110 3111 3111 3111 3111 3112 3112 3112 3112 3112 3112
3080 3080 3081 3083 3085 3087 3089 3092 3094 3095 3097 3098 3098 3099 3100 3101 3102 3102 3103 3104 3105 3105 3105 3106 3106 3105 3105 3106 3107 3107 3107 3107 3108 3108 3108 3109 3109 3109 3110 3110 3110 3110
3077 3077 3079 3082 3084 3085 3087 3089 3091 3093 3093 3094 3095 3097 3097 3098 3099 3100 3101 3101 3102 3102 3103 3103 3103 3102 3102 3103 3103 3104 3104 3104 3105 3105 3106 3106 3107 3107 3107 3107 3107 3107